Back to catalog

STARLINK-31264

AliveCommunicationsVLEO
NORAD 58845·PAYLOAD·🇺🇸 United States

Launched Jan 24, 2024 from Vandenberg Space Force Base

Loading…

Next Passes (next 24 hours)

TLE

FreshSource: CelesTrak SupGP

Epoch: Sep 14, 2026, 14:41 UTC

1 58845C 24017V   26257.61229167  .00051428  00000+0  15195-2 0  2579
2 58845  53.1565 134.9270 0001131  98.1932 210.7391 15.34364760    14

Track STARLINK-31264 in real time with AllMySat

Download on the App Store